Location: Wingville
(42.9917°N, 90.4915°W)
Time: 21:37:08
(UTC+00:00)

EO-79 - Pass Details

Date: 27 June 2022
Orbit: 588 x 603 km, 98.0° (Epoch: 11 August)

Event Time Altitude Azimuth Distance (km) Brightness Sun altitude
Rises 08:20:36 0° 5° (N) 2,850 ? -16.7°
Reaches altitude 10° 08:22:53 10° 357° (N) 1,945 ? -16.5°
Maximum altitude 08:26:47 38° 290° (WNW) 921 ? -16.1°
Enters shadow 08:28:32 26° 242° (WSW) 1,196 ? -15.9°
